Regional Weather Roundup
Issued by NWS

Home | Current Version | Previous Version | Text Only | Print | Product List | Glossary Off
Versions: 1 2 3 4 5 6 7 8 9 10 11 12 13 14 15 16 17 18 19 20 21 22 23 24 25 26 27 28 29 30 31 32 33 34 35 36 37 38 39 40 41 42 43 44 45 46 47 48 49 50

000
ASUS43 KFSD 251902
RWRSD

WEATHER ROUNDUP FOR SOUTH DAKOTA
NATIONAL WEATHER SERVICE SIOUX FALLS SD
200 PM CDT MON SEP 25 2017

NOTE: "FAIR" INDICATES FEW OR NO CLOUDS BELOW 12,000 FEET WITH NO
SIGNIFICANT WEATHER AND/OR OBSTRUCTIONS TO VISIBILITY.


SDZ001>005-009-010-012>017-252000-
NORTHWEST AND NORTH CENTRAL SOUTH DAKOTA

CITY           SKY/WX    TMP DP  RH WIND       PRES   REMARKS
FAITH            N/A     49  42  77 NE5       30.12F
MOBRIDGE       CLOUDY    54  44  69 NE7       30.11F
$$

SDZ012>016-024>037-041>051-057-063-072>074-252000-
SOUTHWEST AND SOUTH CENTRAL SOUTH DAKOTA

CITY           SKY/WX    TMP DP  RH WIND       PRES   REMARKS
RAPID CTY ARPT CLOUDY    50  43  76 S8        30.11F
PIERRE         CLOUDY    53  43  68 N8        30.10F
CUSTER         CLOUDY    44  38  79 SW8       30.10F
ELLSWORTH AFB  CLOUDY    49  45  85 E5        30.10
PHILIP         CLOUDY    54  42  64 N5        30.11F
PINE RIDGE     CLOUDY    53  43  68 N8        30.10F
SPEARFISH      FAIR      46  45  93 CALM      30.11F
WINNER         CLOUDY    54  48  80 N13G20    30.07F
$$

SDZ004>011-016>023-039-040-252000-
NORTHEAST SOUTH DAKOTA

CITY           SKY/WX    TMP DP  RH WIND       PRES   REMARKS
ABERDEEN       CLOUDY    54  46  74 N12       30.10F
WATERTOWN      CLOUDY    52  48  86 NE9       30.05S
BROOKINGS      CLOUDY    53  48  83 NE12      30.04F
SISSETON         N/A     53  48  83 NE14      30.06F
$$

SDZ017-020-022-023-036>040-048>070-252000-
SOUTHEAST SOUTH DAKOTA

CITY           SKY/WX    TMP DP  RH WIND       PRES   REMARKS
SIOUX FALLS    LGT RAIN  55  52  89 N9        30.02F FOG
HURON          CLOUDY    53  48  83 N10       30.08F
CHAMBERLAIN    CLOUDY    54  49  83 N10G16    30.08F
MITCHELL       LGT RAIN  53  50  89 N12       30.06F
YANKTON        RAIN      54  52  93 NE8       30.01F
$$

ABBREVIATIONS USED IN REMARKS
   TC - TEMPERATURE IN CELSIUS
  WCI - WIND CHILL INDEX
   HX - HEAT INDEX
  VSB - VISIBILITY





USA.gov is the U.S. government's official web portal to all federal, state and local government web resources and services.